Weather in Maltsevo

Russia / Kaliningrad Oblast     54°22′26″N   21°43′27″E
temp.,
°C
wind,
m/s
gust,
m/s
humid.,
%
clouds,
%
prec.,
mm/h
press.,
hPa
HPBL,
m
4 july, mon
mon423:00+15ese33911 0.0 101930
02:00+15se34930 0.0 101854
05:00+15sse34965 0.0 101865
08:00+20sse338243 0.3 1017263
11:00+22ssw23720 0.8 1017587
14:00+25wsw2456100 0.8 10151861
17:00+24wnw346243 0.0 1015919
20:00+21ne227426 0.0 101412
5 july, tue
tue523:00+16nw49957 1.1 1017253
02:00+14wnw35960 1.1 1017107
05:00+12wnw239598 0.0 101846
08:00+16wnw358590 0.0 1019324
11:00+20wnw4565100 0.0 10191041
14:00+22wnw4556100 0.0 10191562
17:00+22nnw33554 0.0 10181277
20:00+19nnw237381 0.1 101852
6 july, wed
wed623:00+13n229195 0.0 101921
02:00+13e018895 0.1 101810
05:00+14s1188100 0.3 101812
08:00+17ssw11800 0.3 1018342
11:00+21w35554 0.9 10171419
14:00+21wnw68585 1.1 10161579
17:00+20nw566514 0.4 10161238
20:00+16nnw35853 0.8 1016151
7 july, thu
thu723:00+13wnw248684 0.0 101781
02:00+10sw22915 0.0 101726
05:00+9sw359367 0.0 101781
08:00+14sw4672100 0.0 1016382
11:00+19wsw45575 0.0 10161323
14:00+20sw3554100 0.0 10141844
17:00+19w4562100 0.1 1014683
20:00+15wnw1176100 0.1 101420
8 july, fri
fri823:00+14ssw1274100 0.0 101423
02:00+14ssw3770100 0.0 1014258
05:00+14ssw4976100 0.0 1013398
08:00+14sw488484 0.1 1013470
11:00+19sw576139 0.0 10131552
14:00+18wnw348784 1.7 1018459
17:00+19nnw568227 2.8 1018885
20:00+16nnw488466 3.1 1019278